Погода в Чернявщине

Украина / Днепропетровская область     48°56′21″N   35°51′25″E
темп.,
°C
ветер,
м/с
пор.,
м/с
влажн.,
%
обл.,
%
осадки,
мм/ч
давл.,
гПа
погр.,
м
19 мая, ср
ср1900:00+14ю5119171 0.2 1003523
03:00+12ююв51296100 0.2 1004404
06:00+11ююв51095100 0.0 1004348
09:00+16ююв6776100 0.3 1004543
12:00+18ююв6860100 0.8 10041539
15:00+17ю577099 2.3 1004830
18:00+16ююз577874 2.1 1003503
21:00+12ю48946 2.8 1004173
20 мая, чт
чт2000:00+11ю369638 0.0 1004122
03:00+12юз61093100 0.3 1005521
06:00+12зюз61195100 0.2 1006609
09:00+12зюз699186 0.3 1008632
12:00+14зюз5980100 0.4 1010921
15:00+18з61060100 0.4 10101666
18:00+17з476777 0.0 10111120
21:00+12ссз228749 0.0 101211
21 мая, пт
пт2100:00+12ссз2482100 0.0 101390
03:00+11всв2278100 0.1 101425
06:00+11св3785100 0.0 1014174
09:00+16св5768100 0.0 1013510
12:00+18св6868100 0.1 1013819
15:00+21всв6758100 0.1 10121664
18:00+19св5971100 0.1 1012610
21:00+16ссв6128499 0.1 1013377
22 мая, сб
сб2200:00+15св61377100 0.0 1012412
03:00+14ссв61379100 0.0 1012354
06:00+13ссв61384100 0.0 1012387
09:00+17св9138063 0.0 1011576
12:00+22св6666100 0.0 10121088
15:00+23св6662100 0.0 10121208
18:00+22св6874100 0.0 1012834
21:00+18ссв6119096 0.0 1010277
23 мая, вс
вс2300:00+16св489723 0.0 1011215
03:00+15св3497100 0.0 101071
06:00+16св2594100 0.0 1009126
09:00+20ссз3478100 0.0 1008384
12:00+23ссз4468100 0.0 1007768
15:00+24с3464100 0.0 1007931
18:00+23ссз3674100 0.0 1007489
21:00+18сз37935 0.1 1008154